Regional Weather Roundup
Issued by NWS Newport/Morehead, NC

Current Version | Previous Version | Text Only | Print | Product List | Glossary Off
Versions: 1 2 3 4 5 6 7 8 9 10 11 12 13 14 15 16 17 18 19 20 21 22 23 24 25 26 27 28 29 30 31 32 33 34 35 36 37 38 39 40 41 42 43 44 45 46 47 48 49 50
000 ASUS42 KMHX 220414 RWRMHX WEATHER ROUNDUP FOR EASTERN NORTH CAROLINA NATIONAL WEATHER SERVICE NEWPORT/MOREHEAD CITY NC 1200 AM EDT TUE AUG 22 2017 NOTE: "FAIR" INDICATES FEW OR NO CLOUDS BELOW 12,000 FEET WITH NO SIGNIFICANT WEATHER AND/OR OBSTRUCTIONS TO VISIBILITY NCZ015>017-031-032-045>047-102-103-220500- NORTH COAST CITY SKY/WX TMP DP RH WIND PRES REMARKS EDENTON CLEAR 81 76 86 CALM 30.17F ELIZABETH CITY CLEAR 77 76 96 S3 30.16F KITTY HAWK CLEAR 77 73 88 CALM 30.16S MANTEO CLEAR 78 73 84 S5 30.17F $$ NCZ045>047-081-094-103-104-220500- CENTRAL COAST CITY SKY/WX TMP DP RH WIND PRES REMARKS FRISCO CLEAR 76 74 93 CALM 30.17F $$ NCZ095-097-098-100-101-220500- SOUTHERN COAST CITY SKY/WX TMP DP RH WIND PRES REMARKS BEAUFORT CLEAR 76 76 100 CALM 30.17S CEDAR ISLAND NOT AVBL JACKSONVILLE CLOUDY 76 76 100 CALM 30.17R PINEY ISLAND CLEAR N/A N/A N/A CALM 30.17S WILMINGTON PTCLDY 78 77 96 CALM 30.17R $$ NCZ011>013-027>030-043-044-078>080-089-090>093-098-220500- COASTAL PLAIN CITY SKY/WX TMP DP RH WIND PRES REMARKS AHOSKIE N/A 72 72 99 CALM 30.17F CLINTON CLEAR 75 75 100 CALM 30.17F ELIZABETHTOWN NOT AVBL GOLDSBORO CLEAR 78 73 84 W2 30.18S GREENVILLE CLEAR 75 73 94 SW3 30.18S HAVELOCK CLEAR 76 74 93 CALM 30.18S KENANSVILLE CLEAR 73 72 94 CALM 30.17F KINSTON CLEAR 74 73 96 CALM 30.18S NEW BERN CLEAR 75 75 100 CALM 30.18S RICHLANDS PTCLDY 74 73 97 CALM 30.17F ROCKY MOUNT CLEAR 73 73 100 CALM 30.17S WASHINGTON CLEAR 75 74 96 CALM 30.17F WHITEVILLE CLOUDY 77 76 96 CALM 30.16S $$ AMZ130-135-150-152-154-156-158-170-250-252-270-ANZ085-086-088-633-658-670-220500- MARINE OBSERVATIONS STATION/POSITION TIME TEMP WIND PRES WAVE SWELL AIR SEA DIR/SP/G HT/PER HT/PER (UTC) (F) (DEG/KT/KT) (MB) (FT/S) (FT/S) CHESAPEAKE LIGHT NOT AVBL 64 E VA BEACH 0350 79 80 190/ 4/ 4 1022.1 2/10 2/10 DUCK 0348 80 77 160/ 6/ 8 1021.1 2 E DUCK 0400 81 N/A 2/ 9 2/11 OREGON INLET 0348 130/ 3/ 4 1021.5 13E OREGON INLT 0348 80 N/A 2/ 9 2/ 9 HATTERAS CG 0348 80 82 120/ 2/ 3 1021.5 DIAMOND BUOY 0350 83 84 140/ 2/ 4 1021.4 2/ 8 2/ 8 CAPE LOOKOUT 0400 81 160/ 5/ 5 1021.3 BEAUFORT LAB 0348 81 81 160/ 3/ 4 1021.0 30 SE NEW RVR IN 0308 80 84 170/ 4/ 8 1021.6 30 SE NEW RVR IN 0343 84 N/A 3/10 2/11 27 SE WRIGHTSVLE 0308 83 84 160/ 6/ 10 1021.4 5 SE WRIGHTSVLE 0308 83 83 220/ 8/ 12 1021.1 225 S CAPE HAT 0350 82 84 90/ 4/ 8 1022.0 4/ 9 3/ 9 41 SE CHARLESTON 0350 83 85 180/ 6/ 8 1020.7 3/10 3/10 $$

USA.gov is the U.S. government's official web portal to all federal, state and local government web resources and services.